Tacoma Narrows, WA

2:26 AM PDT on October 19, 2017 (GMT -0700)
Tacoma Narrows

Weather History for KTIW - January, 2012

Change the Weather History Date:

Monday, January 23, 2012

  Actual Average Record
Temperature  
Mean Temperature 42 °F -  
Max Temperature 46 °F 45 °F 57 °F (2002)
Min Temperature 37 °F 37 °F 25 °F (2008)
Degree Days  
Heating Degree Days 24    
Moisture  
Dew Point 35 °F    
Average Humidity 83    
Maximum Humidity 93    
Minimum Humidity 63    
Precipitation  
Precipitation 0.06 in - - ()
Sea Level Pressure  
Sea Level Pressure 29.96 in    
Wind  
Wind Speed 6 mph (South)    
Max Wind Speed 9 mph    
Max Gust Speed -    
Visibility 10 miles    
Events Rain    
Averages and records for this station are not official NWS values.
T = Trace of Precipitation, MM = Missing Value Source: NWS Daily Summary

Daily Weather History Graph

Daily Weather History Graph

Search for Another Location

Airport or City:

Trip Planner

Search our weather history database for the weather conditions in past years. The results will help you decide how hot, cold, wet, or windy it might be!

Date:

Astronomy

Jan. 23, 2012 Rise Set
Actual Time 7:46 AM PST 4:58 PM PST
Civil Twilight 7:12 AM PST 5:31 PM PST
Nautical Twilight 6:35 AM PST 6:09 PM PST
Astronomical Twilight 5:59 AM PST 6:45 PM PST
Moon 7:40 AM PST (1/23) 5:58 PM PST (1/23)
Length of Visible Light 10h 19m
Length of Day
9h 11m
New Moon, 0% of the Moon is Illuminated
Jan 23
New Moon
Jan 30
First Quarter
Feb 7
Full
Feb 14
Last Quarter
Feb 21
New

Hourly Weather History & Observations

Time (PST) Temp. Windchill Dew Point Humidity Pressure Visibility Wind Dir Wind Speed Gust Speed Precip Events Conditions
12:53 AM 39.0 °F 32.8 °F 36.0 °F 89% 29.84 in 10.0 mi South 9.2 mph - N/A   Overcast
1:53 AM 39.0 °F 36.8 °F 36.0 °F 89% 29.88 in 7.0 mi SSW 3.5 mph - 0.02 in Rain Light Rain
2:11 AM 39.2 °F 37.0 °F 35.6 °F 87% 29.87 in 10.0 mi SSW 3.5 mph - N/A Rain Light Rain
2:18 AM 37.4 °F 32.8 °F 35.6 °F 93% 29.87 in 10.0 mi South 5.8 mph - 0.00 in   Overcast
2:53 AM 39.0 °F 34.8 °F 36.0 °F 89% 29.88 in 10.0 mi SSE 5.8 mph - 0.00 in   Overcast
3:27 AM 39.2 °F 35.9 °F 35.6 °F 87% 29.88 in 4.0 mi WSW 4.6 mph - 0.02 in Rain Rain
3:36 AM 39.2 °F 33.6 °F 35.6 °F 87% 29.88 in 5.0 mi SSW 8.1 mph - 0.04 in Rain Light Rain
3:53 AM 39.0 °F 34.0 °F 36.0 °F 89% 29.89 in 10.0 mi South 6.9 mph - 0.04 in   Overcast
4:41 AM 37.4 °F 31.4 °F 35.6 °F 93% 29.88 in 10.0 mi South 8.1 mph - N/A   Overcast
4:53 AM 39.2 °F 34.2 °F 35.6 °F 87% 29.88 in 10.0 mi South 6.9 mph - N/A   Overcast
5:49 AM 37.4 °F 32.1 °F 35.6 °F 93% 29.89 in 10.0 mi South 6.9 mph - N/A   Overcast
5:53 AM 37.9 °F 32.7 °F 35.1 °F 89% 29.90 in 10.0 mi South 6.9 mph - N/A   Overcast
6:53 AM 37.0 °F 33.3 °F 34.0 °F 89% 29.92 in 10.0 mi South 4.6 mph - N/A   Overcast
7:53 AM 37.0 °F 34.5 °F 35.1 °F 93% 29.95 in 10.0 mi South 3.5 mph - N/A   Overcast
8:53 AM 37.9 °F 34.4 °F 35.1 °F 89% 29.98 in 10.0 mi South 4.6 mph - N/A   Mostly Cloudy
9:53 AM 39.2 °F 34.2 °F 35.6 °F 87% 29.99 in 10.0 mi SW 6.9 mph - N/A   Mostly Cloudy
10:53 AM 39.0 °F 35.7 °F 35.1 °F 86% 30.01 in 10.0 mi South 4.6 mph - N/A Rain Light Rain
11:53 AM 43.0 °F 40.3 °F 36.0 °F 76% 30.01 in 10.0 mi SW 4.6 mph - 0.00 in   Mostly Cloudy
12:53 PM 45.0 °F 40.6 °F 36.0 °F 71% 30.01 in 10.0 mi SSW 8.1 mph - N/A   Mostly Cloudy
1:53 PM 46.0 °F 41.4 °F 35.1 °F 66% 30.01 in 10.0 mi South 9.2 mph - N/A   Partly Cloudy
2:53 PM 46.0 °F 42.5 °F 35.1 °F 66% 30.01 in 10.0 mi SSW 6.9 mph - N/A   Scattered Clouds
3:53 PM 45.0 °F 43.5 °F 33.1 °F 63% 30.02 in 10.0 mi SW 3.5 mph - N/A   Scattered Clouds
4:53 PM 43.0 °F 40.3 °F 33.1 °F 68% 30.03 in 10.0 mi SSW 4.6 mph - N/A   Clear
5:53 PM 41.0 °F 38.0 °F 35.1 °F 79% 30.03 in 10.0 mi South 4.6 mph - N/A   Partly Cloudy
6:53 PM 41.0 °F 39.0 °F 35.1 °F 79% 30.02 in 10.0 mi SSW 3.5 mph - N/A   Clear
7:53 PM 39.9 °F 37.8 °F 34.0 °F 79% 30.04 in 10.0 mi SSE 3.5 mph - N/A   Clear
8:53 PM 37.9 °F 33.5 °F 33.1 °F 83% 30.04 in 10.0 mi South 5.8 mph - N/A   Clear
9:53 PM 39.9 °F 36.7 °F 32.0 °F 73% 30.04 in 10.0 mi SSE 4.6 mph - N/A   Clear
10:53 PM 37.0 °F - 33.1 °F 86% 30.04 in 10.0 mi Calm Calm - N/A   Clear
11:53 PM 37.0 °F - 33.1 °F 86% 30.02 in 10.0 mi Calm Calm - N/A   Clear